QPF
0.00 0.00 0.00 0.00 0.00 0.01 0.02 0.02 0.01 0.01 0.01 0.02 0.05 0.06 0.05 0.05 0.04 0.04 0.05 0.04 0.03 0.02 0.02 0.02 0.03 0.04 0.04 0.03 0.02 0.02 0.01 0.02 0.01 0.01 0.02 0.02 0.02 0.02 0.03 0.04 0.05 0.06 0.04 0.04
0.00 0.00 0.00 0.00 0.00 0.01 0.01 0.01 0.01 0.01 0.01 0.02 0.04 0.06 0.05 0.05 0.06 0.05 0.03 0.03 0.04 0.06 0.07 0.06 0.06 0.05 0.04 0.03 0.01 0.01 0.01 0.01 0.02 0.03 0.02 0.02 0.03 0.02 0.04 0.05 0.06 0.06 0.05 0.06
0.00 0.00 0.00 0.01 0.01 0.01 0.01 0.01 0.01 0.03 0.03 0.03 0.05 0.06 0.08 0.05 0.05 0.04 0.04 0.04 0.04 0.04 0.05 0.05 0.05 0.04 0.03 0.02 0.01 0.00 0.01 0.01 0.02 0.03 0.02 0.02 0.03 0.03 0.06 0.12 0.17 0.11 0.06 0.05
0.00 0.00 0.00 0.01 0.01 0.01 0.01 0.01 0.01 0.02 0.03 0.05 0.06 0.10 0.12 0.06 0.04 0.04 0.04 0.04 0.04 0.03 0.03 0.04 0.04 0.04 0.03 0.02 0.01 0.01 0.02 0.03 0.04 0.04 0.04 0.03 0.03 0.03 0.03 0.09 0.12 0.07 0.05 0.04
0.00 0.00 0.00 0.00 0.00 0.01 0.01 0.02 0.03 0.03 0.06 0.11 0.07 0.07 0.12 0.07 0.04 0.04 0.05 0.05 0.05 0.04 0.03 0.03 0.03 0.02 0.03 0.02 0.02 0.02 0.03 0.05 0.04 0.05 0.06 0.06 0.04 0.03 0.02 0.02 0.01 0.02 0.02 0.02
0.00 0.00 0.00 0.00 0.00 0.01 0.01 0.02 0.03 0.02 0.03 0.07 0.08 0.06 0.09 0.06 0.03 0.04 0.04 0.04 0.04 0.04 0.04 0.04 0.04 0.03 0.03 0.03 0.03 0.03 0.03 0.04 0.04 0.03 0.03 0.05 0.06 0.06 0.05 0.03 0.02 0.02 0.02 0.02
0.00 0.00 0.00 0.00 0.00 0.00 0.01 0.02 0.02 0.02 0.02 0.04 0.06 0.05 0.07 0.06 0.04 0.04 0.05 0.04 0.03 0.03 0.04 0.04 0.04 0.03 0.03 0.03 0.03 0.03 0.04 0.05 0.05 0.04 0.04 0.04 0.05 0.06 0.06 0.06 0.04 0.02 0.02 0.02
0.00 0.00 0.00 0.00 0.00 0.01 0.01 0.01 0.02 0.04 0.03 0.04 0.06 0.06 0.07 0.05 0.03 0.05 0.05 0.05 0.03 0.03 0.04 0.03 0.03 0.03 0.04 0.08 0.07 0.06 0.06 0.08 0.07 0.04 0.04 0.03 0.04 0.06 0.07 0.07 0.06 0.03 0.03 0.04
0.00 0.00 0.00 0.00 0.00 0.01 0.01 0.01 0.01 0.02 0.02 0.04 0.06 0.04 0.03 0.03 0.03 0.07 0.08 0.06 0.05 0.04 0.03 0.03 0.02 0.02 0.06 0.12 0.10 0.08 0.05 0.04 0.05 0.04 0.04 0.03 0.03 0.04 0.05 0.06 0.06 0.05 0.06 0.06
0.00 0.00 0.00 0.01 0.01 0.01 0.01 0.01 0.01 0.01 0.02 0.04 0.06 0.07 0.06 0.04 0.03 0.06 0.07 0.05 0.04 0.03 0.03 0.03 0.03 0.03 0.05 0.09 0.11 0.05 0.03 0.04 0.05 0.07 0.08 0.06 0.04 0.03 0.03 0.03 0.03 0.05 0.05 0.05
0.00 0.00 0.00 0.00 0.00 0.01 0.01 0.01 0.01 0.01 0.01 0.02 0.06 0.08 0.05 0.03 0.04 0.06 0.03 0.02 0.02 0.02 0.03 0.04 0.05 0.06 0.05 0.07 0.11 0.10 0.06 0.06 0.08 0.11 0.13 0.08 0.06 0.05 0.05 0.03 0.03 0.04 0.05 0.06
0.00 0.00 0.00 0.00 0.00 0.01 0.01 0.01 0.01 0.01 0.01 0.01 0.07 0.10 0.05 0.03 0.07 0.05 0.03 0.05 0.06 0.07 0.04 0.03 0.04 0.04 0.04 0.04 0.06 0.09 0.11 0.10 0.10 0.11 0.13 0.10 0.08 0.07 0.08 0.05 0.03 0.03 0.05 0.07
0.00 0.00 0.00 0.00 0.00 0.00 0.01 0.01 0.02 0.01 0.01 0.01 0.02 0.04 0.03 0.03 0.05 0.05 0.07 0.11 0.08 0.04 0.02 0.02 0.02 0.02 0.03 0.02 0.03 0.04 0.07 0.09 0.10 0.12 0.12 0.12 0.08 0.06 0.06 0.07 0.06 0.04 0.05 0.06
0.00 0.00 0.00 0.00 0.00 0.00 0.00 0.01 0.01 0.01 0.01 0.01 0.02 0.04 0.04 0.06 0.04 0.06 0.07 0.07 0.03 0.01 0.02 0.02 0.02 0.02 0.01 0.01 0.01 0.02 0.02 0.03 0.06 0.08 0.07 0.07 0.08 0.09 0.09 0.09 0.08 0.05 0.04 0.04
0.00 0.00 0.00 0.00 0.00 0.00 0.00 0.01 0.01 0.01 0.01 0.01 0.01 0.03 0.04 0.03 0.02 0.03 0.04 0.03 0.02 0.02 0.02 0.02 0.02 0.02 0.01 0.01 0.01 0.01 0.02 0.04 0.07 0.07 0.06 0.07 0.08 0.09 0.10 0.11 0.11 0.09 0.07 0.06
0.00 0.00 0.00 0.01 0.01 0.01 0.01 0.00 0.00 0.00 0.01 0.01 0.01 0.03 0.04 0.03 0.03 0.03 0.02 0.02 0.02 0.01 0.02 0.02 0.02 0.01 0.01 0.00 0.01 0.02 0.03 0.04 0.05 0.04 0.04 0.06 0.08 0.10 0.10 0.10 0.10 0.11 0.10 0.09
0.00 0.00 0.00 0.00 0.00 0.01 0.01 0.01 0.01 0.01 0.01 0.01 0.01 0.02 0.03 0.03 0.02 0.02 0.02 0.02 0.01 0.01 0.01 0.01 0.01 0.01 0.01 0.00 0.01 0.02 0.02 0.05 0.08 0.09 0.09 0.08 0.07 0.07 0.06 0.06 0.06 0.04 0.04 0.03
0.00 0.00 0.01 0.01 0.00 0.01 0.01 0.01 0.01 0.01 0.01 0.01 0.01 0.01 0.02 0.02 0.02 0.02 0.02 0.02 0.02 0.02 0.01 0.01 0.01 0.01 0.01 0.00 0.01 0.02 0.02 0.05 0.08 0.09 0.08 0.07 0.08 0.07 0.05 0.05 0.04 0.04 0.03 0.03
0.00 0.00 0.00 0.01 0.01 0.02 0.02 0.01 0.02 0.02 0.02 0.01 0.01 0.01 0.02 0.04 0.03 0.03 0.02 0.02 0.02 0.01 0.01 0.01 0.01 0.01 0.01 0.01 0.01 0.01 0.01 0.02 0.03 0.04 0.04 0.05 0.04 0.04 0.04 0.05 0.03 0.03 0.03 0.02
0.00 0.00 0.00 0.01 0.01 0.02 0.02 0.01 0.01 0.01 0.04 0.02 0.01 0.01 0.03 0.06 0.08 0.04 0.02 0.01 0.01 0.01 0.01 0.01 0.01 0.01 0.01 0.01 0.01 0.01 0.01 0.01 0.02 0.02 0.02 0.02 0.02 0.03 0.03 0.03 0.03 0.03 0.02 0.02
0.00 0.00 0.00 0.01 0.01 0.01 0.01 0.01 0.01 0.02 0.03 0.03 0.05 0.04 0.03 0.03 0.04 0.02 0.01 0.01 0.02 0.02 0.02 0.02 0.01 0.01 0.01 0.00 0.00 0.00 0.00 0.00 0.01 0.01 0.01 0.01 0.02 0.03 0.03 0.03 0.03 0.04 0.04 0.03
0.01 0.01 0.01 0.01 0.01 0.02 0.01 0.01 0.02 0.03 0.04 0.05 0.06 0.06 0.05 0.05 0.04 0.02 0.01 0.01 0.02 0.02 0.02 0.02 0.01 0.01 0.01 0.01 0.01 0.01 0.01 0.01 0.01 0.01 0.02 0.02 0.02 0.02 0.02 0.03 0.03 0.04 0.04 0.04
0.02 0.02 0.02 0.02 0.02 0.02 0.03 0.02 0.02 0.01 0.02 0.04 0.04 0.04 0.04 0.02 0.01 0.01 0.01 0.01 0.01 0.02 0.02 0.02 0.01 0.01 0.01 0.01 0.01 0.01 0.02 0.02 0.02 0.02 0.02 0.02 0.02 0.02 0.02 0.03 0.03 0.03 0.04 0.03
0.01 0.01 0.02 0.02 0.02 0.02 0.02 0.02 0.02 0.02 0.02 0.02 0.02 0.02 0.02 0.01 0.01 0.00 0.01 0.01 0.01 0.01 0.01 0.02 0.02 0.02 0.02 0.02 0.01 0.01 0.02 0.03 0.02 0.02 0.02 0.03 0.03 0.04 0.03 0.02 0.03 0.03 0.03 0.03
0.01 0.01 0.01 0.02 0.02 0.02 0.02 0.02 0.02 0.02 0.01 0.01 0.01 0.01 0.02 0.02 0.01 0.01 0.01 0.01 0.01 0.02 0.02 0.02 0.02 0.03 0.03 0.02 0.02 0.01 0.02 0.02 0.02 0.02 0.02 0.02 0.02 0.03 0.02 0.02 0.02 0.02 0.02 0.02
0.01 0.02 0.02 0.03 0.02 0.02 0.03 0.03 0.02 0.01 0.01 0.01 0.01 0.01 0.02 0.02 0.03 0.02 0.01 0.01 0.01 0.01 0.02 0.03 0.05 0.04 0.04 0.04 0.03 0.02 0.02 0.02 0.01 0.01 0.02 0.02 0.02 0.02 0.02 0.02 0.01 0.01 0.01 0.01
MSLP
1009.00 1009.59 1010.02 1010.29 1010.48 1010.66 1010.90 1011.24 1011.69 1012.21 1012.73 1013.17 1013.46 1013.58 1013.51 1013.30 1013.01 1012.73 1012.54 1012.46 1012.53 1012.71 1012.95 1013.20 1013.39 1013.50 1013.52 1013.47 1013.40 1013.36 1013.39 1013.51 1013.72 1013.99 1014.26 1014.49 1014.63 1014.65 1014.57 1014.41 1014.23 1014.07 1013.97 1013.97
1009.95 1010.29 1010.42 1010.40 1010.35 1010.38 1010.59 1011.02 1011.65 1012.40 1013.16 1013.82 1014.26 1014.43 1014.34 1014.02 1013.58 1013.13 1012.77 1012.56 1012.54 1012.67 1012.90 1013.15 1013.35 1013.45 1013.44 1013.36 1013.24 1013.16 1013.17 1013.29 1013.52 1013.83 1014.16 1014.45 1014.63 1014.69 1014.61 1014.44 1014.23 1014.03 1013.90 1013.88
1010.67 1010.74 1010.58 1010.31 1010.09 1010.04 1010.29 1010.87 1011.72 1012.74 1013.75 1014.61 1015.18 1015.38 1015.22 1014.75 1014.11 1013.45 1012.89 1012.52 1012.39 1012.47 1012.68 1012.95 1013.18 1013.30 1013.31 1013.22 1013.09 1012.98 1012.97 1013.08 1013.33 1013.67 1014.04 1014.37 1014.60 1014.69 1014.63 1014.46 1014.24 1014.02 1013.86 1013.81
1011.10 1010.93 1010.54 1010.09 1009.77 1009.74 1010.11 1010.89 1012.00 1013.29 1014.55 1015.58 1016.23 1016.40 1016.12 1015.45 1014.57 1013.65 1012.86 1012.31 1012.05 1012.06 1012.27 1012.57 1012.85 1013.04 1013.09 1013.03 1012.91 1012.81 1012.79 1012.90 1013.15 1013.50 1013.90 1014.26 1014.53 1014.65 1014.61 1014.45 1014.22 1013.99 1013.82 1013.74
1011.26 1010.89 1010.34 1009.81 1009.50 1009.57 1010.11 1011.14 1012.53 1014.07 1015.53 1016.68 1017.35 1017.45 1016.99 1016.08 1014.91 1013.72 1012.67 1011.92 1011.53 1011.48 1011.68 1012.03 1012.38 1012.65 1012.78 1012.79 1012.71 1012.62 1012.61 1012.72 1012.96 1013.31 1013.72 1014.10 1014.39 1014.53 1014.52 1014.38 1014.16 1013.93 1013.75 1013.65
1011.21 1010.70 1010.08 1009.56 1009.33 1009.57 1010.35 1011.63 1013.27 1015.02 1016.63 1017.83 1018.46 1018.43 1017.76 1016.58 1015.14 1013.66 1012.37 1011.43 1010.91 1010.79 1011.00 1011.39 1011.82 1012.18 1012.40 1012.48 1012.46 1012.41 1012.41 1012.51 1012.75 1013.09 1013.48 1013.86 1014.16 1014.33 1014.34 1014.22 1014.02 1013.80 1013.61 1013.51
1011.01 1010.44 1009.83 1009.39 1009.32 1009.77 1010.78 1012.29 1014.13 1016.02 1017.70 1018.89 1019.43 1019.23 1018.34 1016.93 1015.23 1013.51 1012.02 1010.91 1010.28 1010.11 1010.31 1010.74 1011.24 1011.68 1011.99 1012.15 1012.18 1012.17 1012.18 1012.27 1012.49 1012.81 1013.18 1013.55 1013.85 1014.03 1014.06 1013.96 1013.79 1013.58 1013.40 1013.29
1010.73 1010.17 1009.64 1009.35 1009.46 1010.12 1011.32 1013.00 1014.95 1016.90 1018.55 1019.67 1020.08 1019.72 1018.66 1017.05 1015.18 1013.30 1011.67 1010.46 1009.76 1009.55 1009.75 1010.20 1010.73 1011.23 1011.59 1011.80 1011.88 1011.89 1011.91 1012.00 1012.19 1012.48 1012.83 1013.17 1013.46 1013.64 1013.68 1013.61 1013.45 1013.26 1013.09 1012.99
1010.42 1009.94 1009.55 1009.42 1009.72 1010.53 1011.86 1013.61 1015.57 1017.46 1019.02 1020.01 1020.28 1019.79 1018.61 1016.91 1014.97 1013.05 1011.39 1010.16 1009.44 1009.21 1009.40 1009.84 1010.38 1010.89 1011.27 1011.50 1011.59 1011.61 1011.62 1011.70 1011.86 1012.12 1012.43 1012.75 1013.02 1013.19 1013.24 1013.18 1013.03 1012.86 1012.71 1012.61
1010.12 1009.77 1009.54 1009.58 1010.02 1010.92 1012.28 1013.98 1015.83 1017.57 1018.96 1019.79 1019.92 1019.35 1018.14 1016.47 1014.59 1012.75 1011.18 1010.02 1009.34 1009.14 1009.31 1009.72 1010.23 1010.70 1011.05 1011.26 1011.34 1011.35 1011.35 1011.41 1011.55 1011.77 1012.05 1012.34 1012.58 1012.73 1012.77 1012.71 1012.58 1012.42 1012.27 1012.18
1009.85 1009.67 1009.61 1009.78 1010.30 1011.21 1012.49 1014.02 1015.65 1017.14 1018.29 1018.94 1018.96 1018.37 1017.23 1015.71 1014.03 1012.41 1011.03 1010.03 1009.46 1009.30 1009.47 1009.84 1010.27 1010.67 1010.95 1011.11 1011.15 1011.14 1011.13 1011.17 1011.29 1011.48 1011.73 1011.98 1012.19 1012.32 1012.34 1012.27 1012.14 1011.97 1011.83 1011.74
1009.62 1009.62 1009.72 1010.00 1010.54 1011.36 1012.46 1013.73 1015.04 1016.22 1017.10 1017.54 1017.49 1016.93 1015.95 1014.67 1013.29 1011.98 1010.89 1010.13 1009.71 1009.62 1009.79 1010.10 1010.45 1010.75 1010.95 1011.04 1011.04 1011.00 1010.98 1011.01 1011.12 1011.30 1011.52 1011.74 1011.92 1012.01 1012.01 1011.91 1011.76 1011.59 1011.45 1011.36
1009.46 1009.64 1009.87 1010.21 1010.71 1011.39 1012.23 1013.17 1014.11 1014.93 1015.51 1015.76 1015.64 1015.16 1014.39 1013.42 1012.40 1011.47 1010.72 1010.21 1009.98 1009.98 1010.15 1010.41 1010.67 1010.87 1010.99 1011.02 1010.99 1010.94 1010.93 1010.97 1011.08 1011.25 1011.45 1011.64 1011.77 1011.83 1011.79 1011.68 1011.51 1011.33 1011.17 1011.08
1009.40 1009.74 1010.07 1010.43 1010.84 1011.33 1011.88 1012.45 1013.00 1013.45 1013.73 1013.80 1013.63 1013.25 1012.69 1012.05 1011.40 1010.84 1010.43 1010.20 1010.14 1010.24 1010.42 1010.63 1010.82 1010.95 1011.00 1011.00 1010.97 1010.94 1010.95 1011.03 1011.16 1011.33 1011.52 1011.68 1011.78 1011.79 1011.72 1011.57 1011.39 1011.19 1011.03 1010.94
1009.47 1009.92 1010.32 1010.67 1010.97 1011.25 1011.50 1011.73 1011.90 1011.99 1012.00 1011.89 1011.67 1011.37 1011.02 1010.66 1010.34 1010.12 1010.00 1010.00 1010.11 1010.28 1010.47 1010.66 1010.80 1010.89 1010.92 1010.93 1010.93 1010.96 1011.03 1011.16 1011.33 1011.52 1011.69 1011.83 1011.89 1011.87 1011.76 1011.59 1011.39 1011.20 1011.04 1010.95
1009.69 1010.21 1010.63 1010.94 1011.13 1011.21 1011.19 1011.10 1010.94 1010.73 1010.48 1010.21 1009.94 1009.69 1009.49 1009.34 1009.28 1009.31 1009.41 1009.59 1009.80 1010.03 1010.24 1010.41 1010.54 1010.64 1010.70 1010.76 1010.84 1010.95 1011.11 1011.31 1011.53 1011.74 1011.91 1012.03 1012.05 1012.00 1011.87 1011.69 1011.49 1011.31 1011.17 1011.10
1010.06 1010.60 1011.01 1011.26 1011.33 1011.24 1011.00 1010.64 1010.22 1009.75 1009.30 1008.89 1008.56 1008.32 1008.19 1008.18 1008.27 1008.44 1008.67 1008.94 1009.22 1009.47 1009.69 1009.88 1010.03 1010.16 1010.30 1010.45 1010.65 1010.88 1011.14 1011.43 1011.70 1011.93 1012.11 1012.20 1012.20 1012.12 1011.97 1011.80 1011.62 1011.47 1011.37 1011.34
1010.57 1011.07 1011.42 1011.59 1011.56 1011.33 1010.92 1010.38 1009.76 1009.11 1008.50 1007.98 1007.57 1007.30 1007.19 1007.20 1007.34 1007.56 1007.82 1008.11 1008.39 1008.65 1008.87 1009.08 1009.28 1009.49 1009.73 1010.01 1010.33 1010.69 1011.07 1011.44 1011.76 1012.02 1012.19 1012.27 1012.25 1012.15 1012.01 1011.86 1011.72 1011.62 1011.58 1011.60
1011.17 1011.57 1011.83 1011.90 1011.77 1011.44 1010.92 1010.25 1009.51 1008.75 1008.04 1007.42 1006.94 1006.61 1006.45 1006.43 1006.52 1006.70 1006.92 1007.17 1007.41 1007.64 1007.87 1008.11 1008.37 1008.67 1009.03 1009.44 1009.90 1010.38 1010.87 1011.31 1011.68 1011.95 1012.12 1012.18 1012.15 1012.06 1011.93 1011.82 1011.73 1011.70 1011.73 1011.82
1011.79 1012.05 1012.18 1012.14 1011.92 1011.50 1010.91 1010.19 1009.38 1008.57 1007.79 1007.12 1006.57 1006.18 1005.93 1005.83 1005.83 1005.92 1006.05 1006.21 1006.39 1006.59 1006.81 1007.08 1007.40 1007.79 1008.26 1008.80 1009.37 1009.96 1010.52 1011.02 1011.42 1011.71 1011.87 1011.92 1011.89 1011.81 1011.72 1011.65 1011.64 1011.69 1011.80 1011.96
1012.35 1012.43 1012.41 1012.25 1011.94 1011.46 1010.83 1010.09 1009.28 1008.46 1007.68 1006.97 1006.38 1005.92 1005.59 1005.39 1005.28 1005.25 1005.28 1005.34 1005.45 1005.60 1005.81 1006.10 1006.48 1006.94 1007.50 1008.13 1008.79 1009.45 1010.07 1010.60 1011.01 1011.30 1011.46 1011.52 1011.50 1011.45 1011.40 1011.39 1011.44 1011.57 1011.76 1011.99
1012.77 1012.67 1012.49 1012.21 1011.80 1011.28 1010.64 1009.91 1009.13 1008.34 1007.58 1006.89 1006.29 1005.79 1005.39 1005.10 1004.89 1004.75 1004.67 1004.65 1004.68 1004.79 1004.98 1005.28 1005.69 1006.20 1006.81 1007.49 1008.20 1008.89 1009.53 1010.07 1010.49 1010.78 1010.95 1011.02 1011.03 1011.02 1011.02 1011.07 1011.19 1011.38 1011.63 1011.91
1013.00 1012.72 1012.39 1011.98 1011.50 1010.94 1010.31 1009.62 1008.90 1008.17 1007.47 1006.82 1006.23 1005.73 1005.30 1004.95 1004.67 1004.45 1004.29 1004.19 1004.17 1004.23 1004.40 1004.68 1005.09 1005.61 1006.23 1006.91 1007.63 1008.32 1008.96 1009.49 1009.92 1010.22 1010.40 1010.51 1010.56 1010.59 1010.65 1010.76 1010.94 1011.17 1011.46 1011.77
1012.99 1012.56 1012.09 1011.59 1011.05 1010.47 1009.85 1009.22 1008.57 1007.93 1007.32 1006.74 1006.21 1005.73 1005.30 1004.93 1004.62 1004.35 1004.13 1003.98 1003.91 1003.93 1004.06 1004.32 1004.69 1005.18 1005.77 1006.42 1007.10 1007.77 1008.38 1008.91 1009.34 1009.66 1009.88 1010.04 1010.14 1010.24 1010.36 1010.52 1010.73 1010.98 1011.27 1011.58
1012.75 1012.19 1011.62 1011.04 1010.46 1009.88 1009.30 1008.73 1008.18 1007.64 1007.13 1006.65 1006.20 1005.78 1005.39 1005.04 1004.72 1004.44 1004.19 1004.01 1003.90 1003.87 1003.95 1004.15 1004.46 1004.89 1005.41 1006.00 1006.62 1007.24 1007.83 1008.35 1008.79 1009.15 1009.43 1009.65 1009.83 1010.00 1010.17 1010.37 1010.60 1010.85 1011.12 1011.38
1012.26 1011.62 1010.99 1010.37 1009.77 1009.21 1008.69 1008.21 1007.76 1007.33 1006.94 1006.57 1006.21 1005.88 1005.55 1005.24 1004.94 1004.66 1004.41 1004.20 1004.05 1003.97 1003.98 1004.10 1004.33 1004.67 1005.10 1005.60 1006.16 1006.73 1007.29 1007.81 1008.29 1008.70 1009.06 1009.36 1009.62 1009.86 1010.08 1010.31 1010.54 1010.76 1010.99 1011.19
Thickness
5835 5817 5807 5816 5823 5824 5820 5813 5808 5818 5837 5827 5818 5817 5826 5833 5831 5827 5825 5825 5825 5826 5830 5830 5830 5828 5824 5820 5817 5814 5810 5808 5805 5800 5796 5791 5788 5787 5786 5785 5784 5781 5779 5777
5812 5808 5828 5837 5837 5831 5821 5809 5809 5819 5835 5825 5814 5813 5823 5829 5829 5829 5827 5826 5826 5825 5826 5826 5826 5824 5821 5818 5816 5813 5811 5808 5806 5802 5798 5794 5790 5787 5785 5784 5782 5780 5778 5776
5803 5820 5840 5835 5828 5821 5815 5809 5812 5813 5822 5822 5811 5800 5808 5820 5827 5829 5830 5830 5829 5827 5824 5824 5823 5821 5820 5817 5816 5816 5812 5809 5806 5803 5798 5794 5789 5785 5782 5780 5778 5778 5776 5774
5813 5832 5834 5828 5824 5822 5806 5826 5826 5818 5801 5786 5797 5769 5793 5805 5812 5819 5823 5825 5826 5827 5825 5824 5823 5821 5820 5819 5819 5817 5813 5810 5806 5803 5798 5791 5784 5779 5779 5778 5777 5775 5774 5772
5810 5827 5825 5820 5827 5830 5821 5833 5825 5815 5799 5785 5788 5771 5779 5798 5799 5810 5820 5824 5826 5828 5828 5825 5823 5823 5823 5822 5819 5817 5812 5808 5806 5802 5798 5792 5785 5782 5779 5777 5774 5772 5771 5770
5820 5837 5835 5833 5841 5840 5835 5822 5811 5799 5784 5762 5776 5769 5769 5788 5800 5811 5820 5824 5826 5827 5826 5824 5825 5824 5822 5821 5818 5814 5809 5805 5803 5800 5796 5791 5785 5781 5776 5772 5769 5768 5766 5765
5804 5822 5838 5843 5825 5829 5823 5790 5762 5758 5748 5752 5775 5770 5774 5802 5813 5816 5818 5820 5823 5824 5822 5819 5820 5819 5818 5816 5815 5813 5808 5803 5800 5797 5793 5789 5785 5781 5776 5771 5768 5764 5762 5760
5780 5787 5822 5835 5826 5813 5812 5793 5760 5744 5739 5749 5766 5764 5784 5811 5818 5821 5822 5822 5821 5820 5820 5819 5819 5819 5817 5815 5813 5810 5806 5801 5798 5794 5791 5787 5784 5779 5775 5771 5767 5763 5760 5758
5780 5786 5827 5838 5842 5828 5808 5795 5793 5766 5756 5744 5752 5768 5788 5808 5809 5813 5815 5816 5815 5816 5817 5817 5817 5816 5814 5812 5810 5807 5803 5797 5794 5792 5788 5783 5780 5776 5772 5768 5765 5761 5758 5756
5796 5785 5809 5830 5835 5830 5822 5807 5781 5761 5742 5732 5744 5756 5765 5785 5794 5803 5807 5810 5811 5814 5814 5813 5813 5812 5810 5810 5807 5804 5801 5796 5794 5790 5786 5781 5777 5774 5770 5765 5760 5757 5755 5752
5802 5782 5792 5807 5807 5804 5806 5798 5782 5764 5756 5736 5729 5750 5791 5790 5797 5798 5804 5809 5810 5811 5811 5810 5810 5808 5806 5805 5803 5799 5796 5793 5789 5786 5781 5777 5773 5769 5766 5762 5758 5754 5751 5748
5797 5776 5769 5789 5813 5823 5811 5799 5782 5760 5753 5747 5739 5753 5802 5800 5802 5802 5802 5807 5809 5810 5809 5808 5807 5804 5801 5799 5797 5794 5791 5788 5785 5782 5777 5772 5768 5764 5760 5756 5753 5750 5746 5743
5792 5768 5751 5761 5780 5798 5798 5799 5791 5776 5758 5744 5738 5755 5796 5795 5796 5799 5799 5801 5803 5803 5803 5802 5801 5798 5795 5793 5791 5789 5787 5784 5780 5776 5771 5766 5762 5758 5754 5750 5747 5744 5740 5737
5797 5765 5753 5748 5758 5776 5782 5791 5793 5775 5752 5747 5755 5763 5779 5784 5787 5790 5792 5794 5795 5796 5795 5794 5792 5791 5790 5788 5786 5784 5781 5779 5774 5770 5765 5760 5756 5753 5749 5746 5741 5737 5735 5731
5784 5761 5766 5769 5780 5786 5785 5787 5790 5779 5771 5760 5764 5767 5776 5784 5787 5789 5788 5788 5788 5787 5787 5786 5783 5783 5783 5781 5780 5779 5776 5773 5769 5764 5758 5755 5752 5748 5744 5740 5737 5733 5729 5726
5769 5759 5760 5761 5776 5779 5777 5782 5784 5782 5781 5774 5771 5768 5784 5788 5787 5785 5783 5783 5781 5779 5779 5778 5778 5778 5777 5777 5775 5772 5769 5767 5764 5758 5753 5749 5745 5742 5738 5734 5731 5727 5723 5719
5754 5750 5743 5740 5758 5763 5753 5770 5774 5774 5778 5774 5764 5771 5781 5778 5778 5777 5778 5778 5776 5774 5773 5771 5770 5770 5771 5771 5769 5766 5764 5761 5757 5752 5747 5743 5738 5735 5731 5729 5724 5720 5716 5713
5750 5741 5729 5728 5738 5727 5750 5778 5780 5773 5772 5776 5774 5775 5777 5777 5776 5776 5777 5773 5770 5770 5767 5765 5764 5764 5763 5763 5762 5760 5757 5753 5748 5743 5739 5736 5732 5728 5725 5721 5717 5713 5711 5707
5755 5741 5725 5716 5716 5725 5748 5767 5770 5762 5754 5767 5767 5767 5769 5771 5767 5762 5768 5768 5766 5764 5762 5760 5759 5758 5756 5754 5754 5751 5747 5743 5739 5735 5732 5729 5726 5722 5718 5714 5711 5708 5704 5701
5746 5739 5723 5713 5712 5709 5734 5763 5775 5763 5738 5757 5760 5757 5759 5759 5742 5744 5758 5761 5759 5758 5756 5753 5752 5750 5748 5746 5745 5740 5736 5734 5731 5729 5727 5724 5721 5717 5712 5709 5706 5702 5698 5694
5720 5718 5713 5708 5706 5714 5740 5759 5763 5731 5728 5749 5751 5750 5749 5745 5743 5747 5751 5751 5750 5750 5748 5746 5743 5740 5739 5738 5736 5730 5727 5725 5725 5723 5721 5718 5714 5711 5707 5703 5700 5695 5691 5686
5703 5701 5701 5699 5695 5703 5738 5745 5736 5731 5742 5744 5743 5742 5740 5740 5742 5743 5743 5741 5740 5739 5738 5737 5733 5730 5731 5730 5727 5722 5718 5718 5717 5715 5712 5709 5707 5705 5702 5696 5692 5688 5683 5677
5701 5702 5700 5700 5699 5716 5729 5732 5736 5738 5734 5735 5734 5735 5734 5732 5731 5732 5732 5732 5731 5730 5729 5727 5724 5721 5721 5720 5718 5713 5712 5711 5708 5705 5702 5700 5698 5696 5693 5688 5683 5679 5675 5670
5699 5707 5700 5696 5703 5713 5720 5724 5726 5729 5728 5729 5730 5728 5727 5723 5722 5721 5721 5720 5720 5719 5718 5716 5714 5711 5709 5710 5709 5706 5704 5703 5699 5695 5693 5691 5688 5685 5683 5679 5676 5671 5667 5662
5690 5695 5689 5686 5695 5702 5708 5712 5715 5718 5720 5721 5721 5721 5719 5716 5713 5712 5709 5709 5708 5709 5708 5706 5703 5700 5699 5699 5698 5697 5695 5693 5689 5686 5684 5682 5679 5676 5673 5670 5667 5665 5662 5659
5682 5682 5679 5678 5688 5689 5693 5703 5708 5708 5708 5710 5710 5708 5709 5707 5704 5703 5700 5699 5698 5698 5697 5695 5693 5690 5690 5689 5687 5687 5686 5683 5680 5676 5674 5672 5669 5666 5663 5660 5657 5657 5655 5653